ROMMA est une association bénévole à but non lucratif. Votre soutien est indispensable : ADHERER à ROMMA ou FAIRE un DON

Taninges - (74, Haute-Savoie)

Vallée du Giffre (635 m)   Longitude: 06° 35' 38" E   Latitude: 46° 06' 21" N Station romma n°98
 

Détail journalier du     <<     >>

Température Humidité Pression Vent Dir Rafale Dir. rafale Ensol.
Heure (°C) (%) (hPa) (km/h) (km/h) (min)
01:00 -4.29599903SSO0
02:00 -5.893100005N0
03:00 -6.293100203ENE0
04:00 -7.094100203E0
05:00 -8.693100302ESE0
06:00 -9.693100402SE0
07:00 -9.493100502NE0
08:00 -8.993100503NO0
09:00 -9.592100605SSO0
10:00 -7.594100703E0
11:00 -5.195100702ESE0
12:00 -3.495100703E0
13:00 -0.990100703ENE5
14:00 -0.28410081ESE3E0
15:00 -0.18110082E6SO35
16:00 -0.48010092OSO6OSO30
17:00 -0.78110091SE5NO0
18:00 -1.58510101E3E0
19:00 -1.98310111ESE5SE0
20:00 -2.38210122ESE8ESE0
21:00 -3.18710131NE5E0
22:00 -2.88410142NNO8OSO0
23:00 -3.88210141N10ENE0
minuit -5.88810142NE11ESE0

Graphique du 24-01-2019

 

Serveur OMMA